Regional Weather Roundup
Issued by NWS

Home | Current Version | Previous Version | Text Only | Print | Product List | Glossary On
Versions: 1 2 3 4 5 6 7 8 9 10 11 12 13 14 15 16 17 18 19 20 21 22 23 24 25 26 27 28
000
ASUS42 KTBW 211316
RWRFL
FLORIDA REGIONAL WEATHER ROUNDUP
NATIONAL WEATHER SERVICE TAMPA BAY RUSKIN FL
800 AM EST TUE FEB 21 2017

NOTE: "FAIR" INDICATES FEW OR NO CLOUDS BELOW 12,000 FEET WITH NO
SIGNIFICANT WEATHER AND/OR OBSTRUCTIONS TO VISIBILITY.

FLZ001>010-012>015-112-114-115-211400-
PANHANDLE FLORIDA

CITY           SKY/WX    TMP DP  RH WIND       PRES   REMARKS
PENSACOLA      CLOUDY    64  61  90 N7        29.99S
PENSACOLA NAS  CLOUDY    63  61  93 N7        29.98S
MILTON NAS     RAIN      61  60  97 N8        30.00S FOG
CRESTVIEW      LGT RAIN  62  59  90 SE8       30.00F
DUKE FIELD     MOCLDY    64  62  92 SE13      29.97F
VALPARAISO     MOCLDY    66  65  97 SE17G24   29.99S
MARY ESTHER    LGT RAIN  67  65  91 SE10G23   29.97
TRI COUNTY     FAIR      61  57  87 CALM      30.03
PANAMA CITY    CLOUDY    64  60  87 E8        30.01S
TYNDALL AFB    MOCLDY    65  61  87 E9        30.01S
APALACHICOLA   MOCLDY    67  64  90 SE9       30.04S

STATION/POSITION SKY/WX   TEMP    WIND        PRES    WAVE   SWELL
                          AIR SEA DIR/SP/G            HT/PER HT/PER
                          (F)     (DEG/KT/KT) (MB)    (FT/S) (FT/S)
30.1N   87.6W              66 68   10/ 14/ 16 1014.8R   4/ 5   2/11
28.8N   86.0W              72 70              1016.0F   2/ 4
PANAMA CITY BEAC           66     110/ 15/ 19 1016.3S
TOWER C                    68     130/ 17/ 19 1017.7F
28.5N   84.5W              70 70  130/ 14/ 17 1017.2    2/ 3

$$
FLZ011-016>038-118-127-128-134-139-239-211400-
NORTH FLORIDA

CITY           SKY/WX    TMP DP  RH WIND       PRES   REMARKS
MARIANNA       CLOUDY    61  56  83 E3        30.04R
TALLAHASSEE    MOCLDY    59  58  96 E8        30.07R
PERRY          CLOUDY    61  60  95 SE6       30.10R
CROSS CITY     CLOUDY    61  61 100 SE5       30.10S FOG
LAKE CITY      FOG       57  57 100 E6        30.11F VSB 1
GAINESVILLE    FOG       60  59  96 E5        30.12S VSB 1/2
WILLISTON      FOG       63  63 100 CALM      30.11F VSB 0
PALATKA        FAIR      57  57 100 CALM      30.13F FOG
MAYPORT NAS    CLOUDY    63  61  93 CALM      30.13S FOG
JACKSONVILLE   CLOUDY    55  55 100 CALM      30.13S FOG
JAX NAS        CLOUDY    61  61 100 E3        30.14S FOG
FERNANDINA BEA FAIR      63  63 100 CALM      30.13S
ST AUGUSTINE   CLOUDY    60  58  92 CALM      30.15R

STATION/POSITION SKY/WX   TEMP    WIND        PRES    WAVE   SWELL
                          AIR SEA DIR/SP/G            HT/PER HT/PER
                          (F)     (DEG/KT/KT) (MB)    (FT/S) (FT/S)
SHELL POINT      NOT AVBL
KEATON BEACH               61     100/  7/  9 1018.6R
CEDAR KEY                  65     110/ 11/ 13 1019.3F
FERNANDINA                 63 66     CALM     1021.1R
30.7N   81.3W                 64                N/A     2/ 4
MAYPORT                    63 66  270/  2/  2 1020.7R
31.4N   80.9W              64 62   50/  6/  6 1020.5    1/ 4   2/ 4
ST AUGUSTINE               65 67     CALM     1021.2S

$$
FLZ040-043>046-052-053-057-058-063-144-211400-
INTERIOR CENTRAL FLORIDA

CITY           SKY/WX    TMP DP  RH WIND       PRES   REMARKS
OCALA          PTSUNNY   61  57  88 CALM      30.12S FOG
THE VILLAGES     N/A     61  61 100 CALM      30.03S
LEESBURG       CLOUDY    63  61  93 E5        30.13F FOG
SANFORD        CLOUDY    61  60  97 CALM      30.13S
ORLANDO EXEC   CLOUDY    63  62  97 NE3       30.13R
ORLANDO INTL   PTSUNNY   63  60  90 E3        30.13S
KISSIMMEE      PTSUNNY   63  62  97 CALM      30.14R
WINTER HAVEN   CLOUDY    64  62  93 E3        30.14R
LAKELAND       MOSUNNY   64  64 100 E5        30.13R
BARTOW         PTSUNNY   63 N/A N/A MISG      30.13S
OKEECHOBEE     PTSUNNY   55  55 100 CALM      30.13R

$$
FLZ041-047-054-059-064-141-147-211400-
EAST CENTRAL FLORIDA

CITY           SKY/WX    TMP DP  RH WIND       PRES   REMARKS
ORMOND BEACH   MOSUNNY   57  54  88 CALM      30.14R FOG
DAYTONA BEACH  CLOUDY    59  59 100 CALM      30.14R
DELAND         PTSUNNY   57  55  94 CALM      30.13S
NEW SMYRNA BEA MOSUNNY   61  59  94 CALM      30.13R
JFK SPACE CTR  CLOUDY    59  59 100 CALM      30.12R
TITUSVILLE     SUNNY     61  59  94 W6        30.14R
CAPE CANAVERAL CLOUDY    62  58  90 CALM      30.11S
PATRICK AFB    MOSUNNY   69  66  88 NW5       30.12R
MELBOURNE      CLOUDY    61  60  97 CALM      30.12R
VERO BEACH     CLOUDY    63  60  90 CALM      30.12R
FT PIERCE      CLOUDY    61  59  93 CALM      30.11R
STUART         PTSUNNY   70  64  83 W3        30.12R

STATION/POSITION SKY/WX   TEMP    WIND        PRES    WAVE   SWELL
                          AIR SEA DIR/SP/G            HT/PER HT/PER
                          (F)     (DEG/KT/KT) (MB)    (FT/S) (FT/S)
TRIDENT PIER               65 71   CALM  /  1 1021.3R
28.4N   80.5W                 71                N/A     1/ 6
27.5N   80.2W                 72                N/A     2/ 6

$$
FLZ050-056-061-142-242-148-248-149-249-151-251-155-255-
160-260-211400-
WEST CENTRAL FLORIDA

CITY           SKY/WX    TMP DP  RH WIND       PRES   REMARKS
CRYSTAL RIVER  FAIR      63  61  94 E5        30.11S FOG
INVERNESS      CLOUDY    61  61 100 CALM      30.12S FOG
BROOKSVILLE    CLOUDY    63  61  93 E6        30.11F
CLEARWATER AIR FAIR      64  63  94 SE7       30.09S
ST PETE CLEARW PTSUNNY   65  61  87 SE7       30.10S
TAMPA INTL     PTSUNNY   68  59  73 E5        30.10F
TAMPA EXEC     CLOUDY    64  61  88 E3        30.12S
PLANT CITY     CLOUDY    66  64  94 E5        30.13S
MACDILL AFB    CLOUDY    64  64 100 SE7       30.10S
PETER O KNIGHT CLOUDY    68  63  83 E8        30.11S
ST PETERSBURG  CLOUDY    66  62  87 SE9       30.09S
SARASOTA       CLOUDY    64  60  87 E8        30.08S
VENICE         FAIR      64  63  94 E7        30.10S

STATION/POSITION SKY/WX   TEMP    WIND        PRES    WAVE   SWELL
                          AIR SEA DIR/SP/G            HT/PER HT/PER
                          (F)     (DEG/KT/KT) (MB)    (FT/S) (FT/S)
27.3N   84.2W                 71                N/A     3/ 4
CLEARWATER BEACH           68 76  120/  7/ 12 1019.1F
MIDDLE TAMPA BAY           65     130/  9/ 11 1019.4F
VENICE                     65 69   90/  6/  7 1018.6F

$$
FLZ066-069-070-075>078-162-262-165-265-211400-
SOUTHWEST FLORIDA AND KEYS

CITY           SKY/WX    TMP DP  RH WIND       PRES   REMARKS
PUNTA GORDA    CLOUDY    62  61  96 E6        30.12R FOG
FT MYERS       CLOUDY    67  63  87 CALM      30.10R
SOUTHWEST INTL CLOUDY    65  61  87 E5        30.10R
NAPLES         PTSUNNY   67  63  87 NE8       30.09S
MARCO ISLAND   PTSUNNY   64  61  88 NE6       30.10R
MARATHON       CLOUDY    74  66  76 NE6       30.08R
KEY WEST INTL  CLOUDY    73  65  75 NE7       30.08R

STATION/POSITION SKY/WX   TEMP    WIND        PRES    WAVE   SWELL
                          AIR SEA DIR/SP/G            HT/PER HT/PER
                          (F)     (DEG/KT/KT) (MB)    (FT/S) (FT/S)
NAPLES                        73              1018.9R
26.0N   85.6W              75 75  110/ 14/ 16 1016.5F   2/ 4
DRY TORTUGAS               73      80/ 11/ 12 1018.5R
SAND KEY                   74      80/ 11/ 13 1019.0R
LONG KEY                   72 76   40/ 12/ 14 1018.2R

$$
FLZ067-068-071>074-168-172>174-211400-
SOUTHEAST FLORIDA

CITY           SKY/WX    TMP DP  RH WIND       PRES   REMARKS
W PALM BEACH   CLOUDY    73  57  57 E6        30.11R
FT LAUDER-EXEC CLOUDY    71  60  68 VRB3      30.09S
FT LAUDERDALE  PTSUNNY   73  59  61 NE7       30.09R
POMPANO BEACH  CLOUDY    74  58  57 E12       30.09R
PEMBROKE PINES CLOUDY    66  61  84 CALM      30.11R
OPA LOCKA      CLOUDY    68  61  78 N5        30.10R
MIAMI          CLOUDY    68  59  73 CALM      30.09R
WEST KENDALL   PTSUNNY   65  61  87 CALM      30.10R
HOMESTEAD      PTSUNNY   65  63  93 NW6       30.09R

STATION/POSITION SKY/WX   TEMP    WIND        PRES    WAVE   SWELL
                          AIR SEA DIR/SP/G            HT/PER HT/PER
                          (F)     (DEG/KT/KT) (MB)    (FT/S) (FT/S)
PORT EVERGLADES            73      70/  7/ 10 1018.8R
VIRGINIA KEY               74 80   70/  9/ 11 1019.1R
LAKE WORTH                         90/  8/ 12   N/A
FOWEY ROCKS                74 76   60/ 14/ 16 1019.2R

$$





USA.gov is the U.S. government's official web portal to all federal, state and local government web resources and services.